TimeCDT,TemperatureF,Dew PointF,Humidity,Sea Level PressureIn,VisibilityMPH,Wind Direction,Wind SpeedMPH,Gust SpeedMPH,PrecipitationIn,Events,Conditions,WindDirDegrees,DateUTC
12:53 AM,66.9,62.1,84,29.81,10.0,SE,11.5,-,N/A,,Mostly Cloudy,130,2013-05-18 05:53:00
1:53 AM,66.9,63.0,87,29.78,9.0,SE,13.8,-,N/A,,Mostly Cloudy,140,2013-05-18 06:53:00
2:53 AM,66.9,64.0,90,29.78,7.0,SE,12.7,-,N/A,,Overcast,140,2013-05-18 07:53:00
3:24 AM,68.0,64.4,88,29.83,7.0,SE,10.4,-,N/A,,Overcast,140,2013-05-18 08:24:00
3:38 AM,68.0,64.4,88,29.82,6.0,SE,12.7,-,N/A,,Overcast,130,2013-05-18 08:38:00
3:53 AM,68.0,66.0,93,29.77,6.0,SE,11.5,-,N/A,,Overcast,140,2013-05-18 08:53:00
4:05 AM,69.8,66.2,88,29.82,6.0,SE,11.5,-,N/A,,Overcast,130,2013-05-18 09:05:00
4:53 AM,69.1,66.0,90,29.74,5.0,SE,11.5,-,N/A,,Overcast,130,2013-05-18 09:53:00
5:53 AM,69.1,66.9,93,29.74,4.0,SE,10.4,-,N/A,,Overcast,140,2013-05-18 10:53:00
6:03 AM,69.8,66.2,88,29.79,3.0,SE,12.7,-,N/A,,Overcast,140,2013-05-18 11:03:00
6:23 AM,69.8,66.2,88,29.79,2.0,SE,12.7,-,N/A,,Overcast,140,2013-05-18 11:23:00
6:53 AM,69.1,66.9,93,29.75,2.0,SE,12.7,-,N/A,,Overcast,140,2013-05-18 11:53:00
7:14 AM,69.8,66.2,88,29.79,3.0,SE,12.7,-,N/A,,Overcast,140,2013-05-18 12:14:00
7:53 AM,71.1,66.9,87,29.76,4.0,SSE,12.7,-,N/A,,Overcast,150,2013-05-18 12:53:00
8:07 AM,71.6,66.2,83,29.81,4.0,SSE,10.4,-,N/A,,Overcast,150,2013-05-18 13:07:00
8:53 AM,72.0,66.9,84,29.75,5.0,SSE,13.8,-,N/A,,Haze,150,2013-05-18 13:53:00
9:53 AM,75.0,68.0,79,29.74,6.0,SSE,15.0,23.0,N/A,,Haze,150,2013-05-18 14:53:00
10:01 AM,75.2,68.0,78,29.78,6.0,SSE,16.1,-,N/A,,Haze,150,2013-05-18 15:01:00
10:12 AM,75.2,66.2,73,29.77,7.0,SSE,13.8,-,N/A,,Mostly Cloudy,160,2013-05-18 15:12:00
10:19 AM,75.2,66.2,73,29.77,7.0,SSE,16.1,-,N/A,,Mostly Cloudy,150,2013-05-18 15:19:00
10:53 AM,75.9,66.9,74,29.72,7.0,SSE,17.3,23.0,N/A,,Scattered Clouds,150,2013-05-18 15:53:00
11:04 AM,77.0,66.2,69,29.77,7.0,SSE,16.1,-,N/A,,Mostly Cloudy,160,2013-05-18 16:04:00
11:53 AM,80.1,66.9,64,29.73,8.0,SSE,17.3,-,N/A,,Mostly Cloudy,150,2013-05-18 16:53:00
12:37 PM,78.8,66.2,65,29.77,7.0,SSE,15.0,-,N/A,,Scattered Clouds,150,2013-05-18 17:37:00
12:53 PM,78.1,66.9,68,29.72,8.0,SE,11.5,-,N/A,,Scattered Clouds,140,2013-05-18 17:53:00
1:53 PM,84.2,66.2,55,29.73,9.0,ESE,11.5,21.9,N/A,,Clear,110,2013-05-18 18:53:00
2:53 PM,88.0,66.9,49,29.65,10.0,SE,17.3,24.2,N/A,,Clear,130,2013-05-18 19:53:00
3:53 PM,84.9,66.9,55,29.64,9.0,ESE,20.7,27.6,N/A,,Clear,120,2013-05-18 20:53:00
4:53 PM,84.9,66.9,55,29.59,9.0,SE,25.3,31.1,N/A,,Clear,130,2013-05-18 21:53:00
5:53 PM,81.0,64.9,58,29.60,9.0,SE,20.7,27.6,N/A,,Clear,130,2013-05-18 22:53:00
6:31 PM,80.6,66.2,61,29.61,8.0,ESE,21.9,29.9,N/A,Thunderstorm,Clear,120,2013-05-18 23:31:00
6:53 PM,79.0,66.0,64,29.59,8.0,ESE,15.0,-,N/A,Thunderstorm,Thunderstorm,120,2013-05-18 23:53:00
7:14 PM,78.8,66.2,65,29.64,8.0,ESE,16.1,-,N/A,,Clear,110,2013-05-19 00:14:00
7:21 PM,78.8,66.2,65,29.66,8.0,SE,15.0,-,N/A,Thunderstorm,Clear,130,2013-05-19 00:21:00
7:53 PM,84.0,48.0,28,29.57,10.0,SSE,25.3,36.8,0.00,Thunderstorm,Thunderstorm,150,2013-05-19 00:53:00
8:53 PM,66.0,55.0,68,29.59,9.0,SSE,26.5,35.7,0.04,Rain-Thunderstorm,Thunderstorms and Rain,160,2013-05-19 01:53:00
9:49 PM,66.2,53.6,64,29.63,10.0,SE,21.9,35.7,0.03,Rain-Thunderstorm,Light Rain,130,2013-05-19 02:49:00
9:53 PM,68.0,54.0,61,29.58,10.0,SE,27.6,39.1,0.03,Rain-Thunderstorm,Light Rain,140,2013-05-19 02:53:00
10:18 PM,69.8,55.4,60,29.59,10.0,East,21.9,36.8,0.00,,Mostly Cloudy,100,2013-05-19 03:18:00
10:53 PM,68.0,55.0,63,29.53,10.0,ESE,21.9,34.5,0.00,,Clear,120,2013-05-19 03:53:00
11:53 PM,69.8,53.6,56,29.62,10.0,SE,19.6,-,N/A,,Clear,130,2013-05-19 04:53:00